Regional Weather Roundup
Issued by NWS Midland/Odessa, TX

Skip options and go directly to product.
Home | Oldest Version | Previous Version | Current Version | All | Text Only | Save Text | Print | Product List | Glossary Off

Skip product version selection by date and time.   

601
ASUS44 KMAF 250801
RWRMAF
MIDLAND AREA WEATHER ROUNDUP
NATIONAL WEATHER SERVICE MIDLAND TX
300 AM CDT MON JUL 25 2016

...IN SOUTHWEST TEXAS AND SOUTHEAST NEW MEXICO...

CITY           SKY/WX    TMP DP  RH WIND       PRES   REMARKS
ALPINE         CLEAR     77  58  51 CALM      30.17S
ANDREWS        FAIR      80  58  46 SE6       30.05F
ARTESIA        CLEAR     79  54  41 NW9       30.08R
BIG SPRING     CLEAR     83  61  47 SE7       30.04S
CARLSBAD       CLEAR     80  53  39 S6        30.03R
DRYDEN           N/A     85  66  53 SE16      29.96R
FORT STOCKTON  CLEAR     82  61  48 SE10      30.02R
GUAD PASS      CLEAR     75  53  46 NE17      30.20F
HOBBS          CLEAR     77  55  47 E7        30.09S
MARFA          PTCLDY    70  56  61 N8        30.15S
MIDLAND AIRPK  CLEAR     85  58  38 SE7       30.04R
MIDLAND INTL   CLEAR     84  58  40 SE9       30.03S
ODESSA         CLEAR     85  58  39 S10       30.04S
PECOS          CLEAR     83  57  40 SE6       29.98F
PRESIDIO       FAIR      88  59  37 NE13G18   29.95S
SEMINOLE       CLEAR     77  58  50 E5        30.07F
SNYDER           N/A     81  63  53 SE9       30.02S
WINK           CLEAR     83  57  41 E8        30.00S
$$
...OTHER STATIONS IN TEXAS...

CITY           SKY/WX    TMP DP  RH WIND       PRES   REMARKS
ABILENE        CLEAR     80  65  59 SE8       29.99S
AMARILLO       CLEAR     73  62  68 NE10      30.12S
AUSTIN         PTCLDY    80  74  81 S5        29.94F
BROWNSVILLE    PTCLDY    81  78  91 SE9       29.90S
CORPUS CHRISTI PTCLDY    80  77  90 SE5       29.91S
DALLAS FTW     PTCLDY    83  71  67 S5        29.93R
DEL RIO        CLEAR     86  71  60 E13       29.90S
EL PASO        MOCLDY    89  50  26 N17       30.04S
HOUSTON INT    CLOUDY    83  76  79 S3        29.93F
LUBBOCK        PTCLDY    77  60  55 SE6       30.07S
SAN ANGELO     CLEAR     77  63  61 E5        29.97F
SAN ANTONIO    CLEAR     80  73  79 SE9       29.96F
WACO           CLEAR     84  72  67 S9        29.93S
WICHITA FALLS  NOT AVBL
$$
...OTHER LOCATIONS IN NEW MEXICO...

CITY           SKY/WX    TMP DP  RH WIND       PRES   REMARKS
ALAMAGORDO     CLEAR     77  52  41 NW7       30.08S
ALBUQUERQUE    MOCLDY    72  56  57 E8        30.20F
CANNON AFB     CLEAR     71  58  62 NE9       30.16R
CLOVIS         CLEAR     70  55  60 NE8       30.15F
HOLLOMAN AFB   NOT AVBL
ROSWELL        CLEAR     79  54  41 N13       30.10R
RUIDOSO          N/A     64  48  55 SW8       30.36F
SANTA FE       CLOUDY    70  52  52 S14       30.27F
TRUTH OR CONSE MOCLDY    79  52  38 N13       30.16F
TUCUMCARI      CLOUDY    72  60  66 NW7       30.16R
$$

USA.gov is the U.S. government's official web portal to all federal, state and local government web resources and services.